This is the latest recevied weather packets stored in our database for station/object LA5PPA-1. If no packets are shown the sender has not sent any weather packets the latest 10 day(s).
| Time | Temp. | Humidity | Pressure | Rain* | Wind** | Luminosity | Snow |
|---|---|---|---|---|---|---|---|
| 1778253770 | 10° C | 38% | 1024.1 hPa | 0 mm | - | - | - |
| 1778253709 | 10° C | 38% | 1024.1 hPa | 0 mm | - | - | - |
| 1778253409 | 10° C | 38% | 1024.1 hPa | 0 mm | - | - | - |
| 1778253109 | 10.56° C | 40% | 1024.1 hPa | 0 mm | - | - | - |
| 1778252809 | 10° C | 39% | 1024.1 hPa | 0 mm | - | - | - |
| 1778252509 | 10.56° C | 39% | 1024 hPa | 0 mm | - | - | - |
| 1778252450 | 10.56° C | 39% | 1024.1 hPa | 0 mm | - | - | - |
| 1778252209 | 10° C | 38% | 1024.1 hPa | 0 mm | - | - | - |
| 1778251909 | 10° C | 39% | 1024 hPa | 0 mm | - | - | - |
| 1778251790 | 10° C | 39% | 1024 hPa | 0 mm | - | - | - |
| 1778251309 | 9.44° C | 40% | 1024.2 hPa | 0 mm | - | - | - |
| 1778251130 | 9.44° C | 39% | 1024.1 hPa | 0 mm | - | - | - |
| 1778251009 | 9.44° C | 41% | 1024.1 hPa | 0 mm | - | - | - |
| 1778250709 | 10° C | 39% | 1024.1 hPa | 0 mm | - | - | - |
| 1778250470 | 10.56° C | 39% | 1024.1 hPa | 0 mm | - | - | - |
| 1778250409 | 10.56° C | 38% | 1024.1 hPa | 0 mm | - | - | - |
| 1778250109 | 10.56° C | 38% | 1024.1 hPa | 0 mm | - | - | - |
| 1778249809 | 10.56° C | 38% | 1024.2 hPa | 0 mm | - | - | - |
| 1778249509 | 10.56° C | 38% | 1024.2 hPa | 0 mm | - | - | - |
| 1778249209 | 10.56° C | 39% | 1024.1 hPa | 0 mm | - | - | - |
| 1778249150 | 10.56° C | 42% | 1024.2 hPa | 0 mm | - | - | - |
| 1778248909 | 10.56° C | 40% | 1024.2 hPa | 0 mm | - | - | - |
| 1778248609 | 10.56° C | 39% | 1024.2 hPa | 0 mm | - | - | - |
| 1778248490 | 10.56° C | 40% | 1024.2 hPa | 0 mm | - | - | - |
| 1778248309 | 10.56° C | 40% | 1024.3 hPa | 0 mm | - | - | - |
* Rain latest hour (hover to see other rain measurements)
** Current wind speed in m/s (hover to see current wind gust speed)